Total_Precipitation_Accumulation
0.70 0.72 0.77 0.79 0.82 0.92 1.03 1.11 1.14 1.13 1.12 1.19 1.29 1.38 1.39 1.40 1.43 1.42 1.32 1.27 1.22 1.14 1.10 1.12 1.13 1.10 1.15 1.17 1.21 1.31 1.42 1.58 1.64 1.35 1.15 1.14 1.23 1.25 1.25 1.16 1.11 1.14 1.14
0.56 0.57 0.59 0.63 0.65 0.71 0.80 0.87 0.93 0.98 1.00 1.03 1.03 1.05 1.12 1.18 1.24 1.29 1.26 1.20 1.15 1.09 1.04 1.05 1.05 1.06 1.11 1.15 1.20 1.28 1.34 1.41 1.48 1.39 1.19 1.08 1.04 1.00 0.98 0.94 0.90 0.86 0.85
0.48 0.50 0.51 0.51 0.53 0.57 0.61 0.66 0.67 0.74 0.83 0.90 0.90 0.88 0.87 0.88 0.94 1.03 1.10 1.14 1.12 1.07 1.06 1.07 1.06 1.08 1.12 1.15 1.20 1.26 1.27 1.24 1.22 1.19 1.05 0.91 0.84 0.81 0.83 0.80 0.78 0.78 0.71
0.43 0.44 0.47 0.46 0.47 0.49 0.50 0.52 0.53 0.54 0.57 0.61 0.65 0.68 0.73 0.76 0.76 0.81 0.88 0.97 1.05 1.07 1.09 1.09 1.10 1.15 1.22 1.26 1.26 1.24 1.20 1.16 1.10 1.06 0.98 0.88 0.79 0.72 0.74 0.77 0.75 0.74 0.70
0.41 0.39 0.40 0.42 0.43 0.42 0.42 0.41 0.39 0.38 0.39 0.42 0.48 0.51 0.58 0.63 0.67 0.70 0.73 0.79 0.86 0.92 1.02 1.09 1.14 1.23 1.26 1.20 1.09 1.01 0.95 0.95 0.94 0.94 0.88 0.79 0.71 0.66 0.65 0.61 0.62 0.65 0.68
0.40 0.39 0.38 0.40 0.41 0.40 0.37 0.33 0.32 0.33 0.35 0.36 0.39 0.44 0.49 0.53 0.69 0.70 0.64 0.65 0.75 0.81 0.86 0.93 1.00 1.05 0.99 0.96 0.91 0.84 0.85 0.89 0.88 0.80 0.71 0.62 0.52 0.48 0.49 0.55 0.62 0.72 0.74
0.47 0.43 0.39 0.39 0.40 0.40 0.40 0.40 0.39 0.38 0.38 0.40 0.40 0.44 0.47 0.55 0.67 0.68 0.73 0.67 0.70 0.75 0.74 0.74 0.72 0.70 0.70 0.61 0.64 0.65 0.67 0.70 0.67 0.61 0.58 0.49 0.43 0.41 0.51 0.62 0.63 0.64 0.57
0.58 0.57 0.51 0.51 0.53 0.55 0.58 0.59 0.58 0.57 0.58 0.58 0.56 0.58 0.61 0.69 0.76 0.71 0.69 0.63 0.62 0.62 0.58 0.53 0.51 0.49 0.48 0.49 0.51 0.52 0.46 0.43 0.43 0.39 0.36 0.35 0.37 0.42 0.53 0.64 0.67 0.67 0.59
0.74 0.80 0.78 0.77 0.79 0.83 0.87 0.90 0.88 0.85 0.84 0.83 0.82 0.80 0.77 0.76 0.72 0.61 0.54 0.48 0.47 0.44 0.40 0.38 0.38 0.37 0.43 0.49 0.48 0.47 0.44 0.41 0.42 0.43 0.43 0.42 0.46 0.49 0.54 0.63 0.75 0.89 0.81
0.85 0.91 0.90 0.89 0.89 0.89 0.91 0.90 0.87 0.82 0.80 0.77 0.76 0.72 0.65 0.57 0.51 0.44 0.39 0.34 0.33 0.30 0.30 0.31 0.35 0.36 0.46 0.55 0.50 0.49 0.48 0.43 0.44 0.46 0.45 0.43 0.40 0.42 0.49 0.49 0.57 0.84 0.86
0.83 0.80 0.74 0.71 0.67 0.63 0.60 0.58 0.56 0.52 0.51 0.48 0.45 0.41 0.36 0.33 0.32 0.31 0.32 0.29 0.29 0.30 0.30 0.30 0.31 0.40 0.48 0.55 0.58 0.53 0.52 0.53 0.51 0.51 0.51 0.48 0.46 0.46 0.46 0.42 0.45 0.66 0.89
0.56 0.48 0.42 0.40 0.39 0.38 0.37 0.34 0.31 0.29 0.28 0.27 0.24 0.23 0.21 0.21 0.24 0.26 0.31 0.33 0.34 0.32 0.30 0.27 0.29 0.41 0.49 0.53 0.53 0.54 0.60 0.62 0.56 0.55 0.55 0.53 0.49 0.47 0.45 0.43 0.44 0.47 0.55
0.26 0.22 0.19 0.18 0.19 0.20 0.21 0.21 0.18 0.16 0.17 0.17 0.17 0.17 0.18 0.19 0.21 0.26 0.29 0.32 0.36 0.34 0.31 0.35 0.41 0.46 0.48 0.46 0.47 0.51 0.55 0.53 0.53 0.55 0.52 0.45 0.41 0.41 0.45 0.50 0.52 0.53 0.53
0.17 0.16 0.14 0.13 0.14 0.16 0.17 0.19 0.19 0.18 0.18 0.19 0.20 0.20 0.19 0.19 0.20 0.23 0.27 0.31 0.36 0.37 0.36 0.37 0.42 0.46 0.49 0.48 0.47 0.47 0.47 0.48 0.52 0.52 0.47 0.43 0.43 0.47 0.50 0.52 0.58 0.61 0.67
0.18 0.18 0.18 0.16 0.15 0.17 0.19 0.21 0.24 0.23 0.24 0.28 0.28 0.28 0.29 0.26 0.24 0.34 0.40 0.40 0.42 0.45 0.50 0.50 0.48 0.46 0.47 0.47 0.45 0.44 0.45 0.49 0.52 0.51 0.53 0.54 0.53 0.53 0.52 0.51 0.59 0.68 0.73
0.22 0.22 0.23 0.24 0.22 0.23 0.24 0.26 0.29 0.31 0.33 0.33 0.33 0.35 0.34 0.34 0.37 0.43 0.47 0.48 0.51 0.59 0.66 0.58 0.48 0.44 0.43 0.43 0.45 0.46 0.47 0.49 0.51 0.56 0.62 0.65 0.66 0.66 0.64 0.60 0.65 0.74 0.73
0.29 0.29 0.31 0.31 0.31 0.31 0.32 0.32 0.33 0.35 0.38 0.37 0.35 0.35 0.37 0.39 0.43 0.46 0.49 0.53 0.57 0.63 0.61 0.49 0.40 0.39 0.40 0.41 0.45 0.49 0.50 0.49 0.56 0.66 0.71 0.72 0.75 0.77 0.76 0.74 0.72 0.77 0.75
0.26 0.29 0.31 0.32 0.33 0.34 0.35 0.35 0.37 0.38 0.37 0.34 0.34 0.37 0.40 0.43 0.46 0.49 0.55 0.63 0.63 0.56 0.48 0.42 0.40 0.41 0.44 0.47 0.50 0.53 0.56 0.57 0.63 0.68 0.71 0.74 0.80 0.89 0.88 0.82 0.78 0.81 0.83
0.27 0.29 0.32 0.34 0.36 0.37 0.37 0.39 0.39 0.38 0.38 0.35 0.34 0.39 0.46 0.52 0.56 0.58 0.60 0.60 0.53 0.45 0.40 0.40 0.42 0.46 0.50 0.54 0.57 0.59 0.63 0.66 0.66 0.71 0.71 0.72 0.79 0.94 0.91 0.78 0.80 0.83 0.90
0.30 0.36 0.41 0.41 0.41 0.41 0.42 0.44 0.44 0.43 0.42 0.41 0.41 0.43 0.55 0.67 0.63 0.57 0.54 0.49 0.47 0.44 0.42 0.45 0.47 0.51 0.57 0.61 0.64 0.67 0.70 0.68 0.68 0.72 0.72 0.73 0.78 0.91 0.92 0.83 0.83 0.89 0.86
0.33 0.38 0.46 0.46 0.42 0.43 0.47 0.49 0.50 0.51 0.49 0.46 0.43 0.49 0.71 0.78 0.66 0.56 0.52 0.50 0.51 0.52 0.53 0.55 0.55 0.57 0.62 0.65 0.68 0.69 0.71 0.67 0.66 0.71 0.74 0.76 0.82 0.89 0.84 0.86 0.86 0.88 0.94
0.37 0.39 0.42 0.45 0.45 0.49 0.53 0.55 0.57 0.55 0.50 0.48 0.45 0.51 0.66 0.65 0.59 0.57 0.54 0.51 0.52 0.55 0.60 0.66 0.65 0.60 0.64 0.73 0.79 0.81 0.74 0.65 0.63 0.71 0.77 0.78 0.83 0.86 0.87 0.92 0.94 1.00 1.03
0.41 0.43 0.43 0.44 0.46 0.51 0.54 0.50 0.52 0.52 0.50 0.48 0.48 0.49 0.53 0.54 0.52 0.52 0.53 0.53 0.55 0.57 0.60 0.65 0.66 0.59 0.58 0.68 0.78 0.91 0.92 0.75 0.69 0.82 0.99 0.99 0.97 0.99 1.05 1.09 1.03 1.00 0.91
0.41 0.43 0.45 0.45 0.46 0.48 0.48 0.46 0.46 0.49 0.50 0.51 0.50 0.49 0.48 0.49 0.49 0.50 0.52 0.55 0.57 0.58 0.59 0.62 0.62 0.59 0.58 0.65 0.70 0.74 0.80 0.88 1.08 1.20 1.34 1.53 1.43 1.25 1.19 1.13 0.99 0.92 0.91
0.41 0.44 0.46 0.47 0.48 0.49 0.49 0.48 0.47 0.48 0.50 0.51 0.51 0.50 0.48 0.49 0.49 0.48 0.50 0.52 0.55 0.57 0.55 0.57 0.59 0.60 0.61 0.63 0.65 0.67 0.74 0.89 1.18 1.54 1.70 1.63 1.39 1.18 1.17 1.11 0.99 0.94 0.93
0.41 0.45 0.48 0.49 0.49 0.50 0.50 0.50 0.49 0.49 0.51 0.51 0.52 0.52 0.52 0.52 0.51 0.51 0.52 0.53 0.54 0.53 0.52 0.52 0.53 0.57 0.61 0.63 0.60 0.64 0.75 0.85 0.94 1.12 1.45 1.54 1.35 1.16 1.15 1.21 1.08 1.02 1.00